Flag Weather past 2 weeks in Wardha, Maharashtra, India

Now
70 °F

Haze.


Feels Like: 70 °F
Forecast: 58 / 88 °F
Wind: No wind

Location: Nagpur Sonegaon

Current Time: Nov 26, 2014 at 10:19:39 AM

Latest Report: Nov 26, 2014 at 9:10 AM


Visibility: 2 mi

Pressure: 30.01 "Hg

Humidity: 64%

Dew point: 57 °F

Location of WardhaLocation

Historic Weather in Wardha — Graph

°F

Wardha temperature yesterday

Maximum temperature yesterday: 86 °F (at 1:10 PM)
Minimum temperature yesterday: 55 °F (at 6:10 AM)
Average temperature yesterday: 74 °F

Past Weeks' High & Low Weather Summary

 TemperatureHumidityPressure
High93 °F (Nov 15, 12:40 PM)100% (Nov 11, 10:10 AM)30.12 "Hg (Nov 11, 10:10 AM)
Low55 °F (Nov 19, 2:10 AM)24% (Nov 18, 2:10 PM)29.86 "Hg (Nov 22, 2:40 PM)
Average76 °F61%29.98 "Hg
* Reported Nov 11 8:40 AM — Nov 26 8:40 AM, Wardha, Weather by CustomWeather, © 2014

Note: Actual official high and low records may vary slightly from our data, if they occured in-between our weather recording intervals... More about our weather records

Advertising

Wardha weather history for previous 24 hours

 ConditionsComfort  
Time TempWeatherWind HumidityBarometerVisibility
8:40 AM
Nov 26
68 °FHaze.No wind60%29.98 "Hg1 mi
8:10 AM64 °FHaze.No wind60%29.98 "Hg1 mi
7:40 AM59 °FHaze.No wind72%29.95 "Hg1 mi
5:40 AM59 °FHaze.3 mph68%29.92 "Hg2 mi
5:10 AM57 °FHaze.2 mph72%29.92 "Hg2 mi
3:10 AM61 °FHaze.2 mph59%29.92 "Hg2 mi
2:10 AM61 °FHaze.5 mph63%29.92 "Hg2 mi
1:10 AM59 °FHaze.5 mph63%29.95 "Hg2 mi
12:10 AM63 °FHaze.3 mph56%29.95 "Hg2 mi
11:10 PM
Nov 25
64 °FHaze.3 mph100%29.98 "Hg2 mi
10:10 PM64 °FHaze.3 mph52%29.98 "Hg2 mi
9:40 PM64 °FHaze.No wind56%29.98 "Hg2 mi
9:10 PM68 °FHaze.No wind56%29.98 "Hg2 mi
8:40 PM68 °FHaze.2 mph60%29.98 "Hg2 mi
8:10 PM70 °FHaze.2 mph60%29.98 "Hg2 mi
7:40 PM68 °FHaze.2 mph60%29.98 "Hg2 mi
6:40 PM72 °FHaze.2 mph61%29.95 "Hg2 mi
6:10 PM73 °FHaze.2 mph65%29.92 "Hg2 mi
5:10 PM82 °FHaze.3 mph70%29.92 "Hg2 mi
4:40 PM84 °FHaze.3 mph66%29.92 "Hg2 mi
3:40 PM86 °FHaze.3 mph66%29.92 "Hg2 mi
3:10 PM86 °FHaze.3 mph66%29.92 "Hg2 mi
2:40 PM86 °FHaze.3 mph66%29.92 "Hg2 mi
2:10 PM86 °FHaze.3 mph66%29.92 "Hg2 mi
1:40 PM86 °FHaze.3 mph66%29.95 "Hg2 mi
1:10 PM86 °FHaze.No wind66%29.95 "Hg2 mi
12:40 PM84 °FHaze.No wind70%29.98 "Hg2 mi
12:10 PM84 °FHaze.No wind66%30.01 "Hg2 mi
11:10 AM81 °FHaze.No wind66%30.04 "Hg2 mi
10:40 AM79 °FHaze.3 mph61%30.07 "Hg2 mi
Weather by CustomWeather, © 2014

See weather overviewHow to use our weather pages